User: anonymous   Login
Location: Unspecified
(0.0000°N, 0.0000°E)
Time: 11:01:33
(UTC+00:00)
Language:

STARLINK-35742 - Orbit

View from above orbital plane
View from above orbital plane
View from above satellite
View from above satellite

Ground track
Ground track

The orbit is defined by the following mean orbital elements,

1 66276U          26145.36903433 +.00000000 +00000-0 +36957-3 0 00002
2 66276  53.1576 195.2753 0000906 100.8787 259.2316 15.30203624    08
Epoch (UTC): 25 May 2026 08:51:24
Eccentricity: 0.0000906
inclination: 53.1576°
perigee height: 475 km
apogee height: 476 km
right ascension of ascending node: 195.2753°
argument of perigee: 100.8787°
revolutions per day: 15.30203624
mean anomaly at epoch: 259.2316°

The dashed part of the orbit path shows where the satellite is in the earth's shadow,  

DLR